Location: *
(58.4167°N, 22.5000°E)
Time: 10:08:23
(UTC+00:00)

NOSS 2-1 (D) - Pass Details

Date: 22 September 2019
Orbit: 462 x 1741 km, 63.3° (Epoch: 15 October)

Event Time Altitude Azimuth Distance (km) Brightness Sun altitude
Rises 18:50:49 0° 290° (WNW) 2,698 8.4 -18.2°
Reaches altitude 10° 18:52:49 10° 296° (WNW) 1,904 7.3 -18.4°
Maximum altitude 18:56:57 51° 13° (NNE) 878 4.4 -18.9°
Enters shadow 18:59:52 24° 78° (ENE) 1,571 5.2 -19.2°
